Location: Evergreen Manor
(41.4083°N, 81.4939°W)
Time: 22:57:30
(UTC+00:00)

COSMO-SKYMED 1 - Pass Details

Date: 11 December 2019
Orbit: 621 x 623 km, 97.9° (Epoch: 22 January)

Event Time Altitude Azimuth Distance (km) Brightness Sun altitude
Rises 10:50:32 0° 173° (S) 2,889 6.3 -20.1°
Reaches altitude 10° 10:52:43 10° 176° (S) 1,987 5.4 -19.7°
Maximum altitude 10:57:01 65° 259° (W) 689 2.5 -18.9°
Enters shadow 10:59:23 26° 334° (NNW) 1,238 3.7 -18.5°
